Regional Weather Roundup
Issued by NWS Upton, NY

Current Version | Previous Version | Text Only | Print | Product List | Glossary On
Versions: 1 2 3 4 5 6 7 8 9 10 11 12 13 14 15 16 17 18 19 20 21 22 23 24 25 26 27 28 29 30 31 32 33 34 35 36 37 38 39 40 41 42 43 44 45 46 47 48 49 50
000
ASUS41 KOKX 201905
RWROKX

REGIONAL WEATHER ROUNDUP
NATIONAL WEATHER SERVICE NEW YORK NY
300 PM EDT WED AUG 20 2014

NOTE: "FAIR" INDICATES FEW OR NO CLOUDS BELOW 12,000 FEET WITH NO
SIGNIFICANT WEATHER AND/OR OBSTRUCTIONS TO VISIBILITY.

NYZ071-072-176-178-NJZ106-104-202000-
NEW YORK CITY METRO AREA


CITY           SKY/WX    TMP DP  RH WIND       PRES   REMARKS
CENTRAL PARK   MOSUNNY   83  58  42 MISG      30.00F
LAGUARDIA APRT MOSUNNY   82  57  42 VRB5      29.97F
KENNEDY INTL   MOSUNNY   79  59  50 SE10      30.00S
NEWARK/LIBERTY MOSUNNY   82  57  42 S9        29.97F
BRNX BOT. GARD   N/A     82  61  47 E3        29.97F
TETERBORO      MOSUNNY   84  58  40 S8        29.95F
$$

NYZ177-179-078>081-202000-
LONG ISLAND NEW YORK

CITY           SKY/WX    TMP DP  RH WIND       PRES   REMARKS
FARMINGDALE    SUNNY     77  59  53 S10       29.99F
ISLIP          MOSUNNY   78  57  48 S8        29.98F
SHIRLEY        MOSUNNY   78  57  48 SE9       30.00F
WESTHAMPTON    SUNNY     77  56  48 SE8       30.01F
MONTAUK POINT    N/A     77  63  61 S6        30.01F
$$

NYZ052-065-067-202000-
HUDSON VALLEY

CITY           SKY/WX    TMP DP  RH WIND       PRES   REMARKS
WHITE PLAINS   MOSUNNY   80  61  52 CALM      29.98F
NEWBURGH       MOSUNNY   81  66  61 VRB6      29.98F
MONTGOMERY     CLOUDY    83  63  50 S8        29.95F
POUGHKEEPSIE   MOSUNNY   81  65  58 E6        29.95F
ALBANY         PTSUNNY   82  66  58 SE8       29.95F
$$

NJZ001-105-106-008-010-013-015-019>022-104-202000-
NEW JERSEY

CITY           SKY/WX    TMP DP  RH WIND       PRES   REMARKS
NEWARK/LIBERTY MOSUNNY   82  57  42 S9        29.97F
TETERBORO      MOSUNNY   84  58  40 S8        29.95F
CALDWELL       CLOUDY    82  59  45 CALM      29.96F
MORRISTOWN     CLOUDY    82  61  47 S6        29.97F
SOMERVILLE     PTSUNNY   86  62  44 S7        29.94F
LINDEN         FAIR      87  58  37 SE12      29.99S
SUSSEX         SUNNY     85  64  49 VRB7      29.96F
ANDOVER          N/A     82  63  52 VRB3      29.97F
TRENTON        MOSUNNY   82  62  50 S8        29.96F
MILLVILLE      MOSUNNY   83  64  52 S6        29.97F
ATLANTIC CITY  SUNNY     79  60  52 SE8       29.99S
WRIGHTSTOWN    MOSUNNY   84  65  52 VRB5      29.94F
TOMS RIVER     SUNNY     81  57  44 E6        29.98F
BELMAR         SUNNY     79  57  47 E8        29.99S
$$

PAZ047>061-062-071-202000-
EASTERN PENNSYLVANIA

CITY           SKY/WX    TMP DP  RH WIND       PRES   REMARKS
PHILADELPHIA   MOSUNNY   84  63  49 S5        29.96F
ALLENTOWN      CLOUDY    83  62  49 S6        29.96F
SCRANTON       PTSUNNY   81  64  56 VRB6      29.96F
$$

CTZ002-004>006-009-010-012-RIZ004-006-007-MAZ004-011-015-202000-
SOUTHERN NEW ENGLAND
 IN CT

CITY           SKY/WX    TMP DP  RH WIND       PRES   REMARKS
BRADLEY INTL   MOSUNNY   83  59  44 VRB6      29.97F
HARTFORD       SUNNY     81  55  40 E5        29.97F
DANBURY        PTSUNNY   79  64  60 VRB5      29.99F
WTRBRY/OXFORD  MOSUNNY   79  64  61 S7        30.02F
BRIDGEPORT     SUNNY     78  59  51 E8        29.99F
MERIDEN        SUNNY     82  59  45 MISG      29.98F
NEW HAVEN      MOSUNNY   80  57  45 SE7       29.99F
CHESTER        FAIR      79  61  53 S6        30.01S
GROTON         SUNNY     74  64  71 SW8       29.99F
WILLIMANTIC    MOSUNNY   82  59  45 N5        29.99F

 IN RI

CITY           SKY/WX    TMP DP  RH WIND       PRES   REMARKS
PROVIDENCE     MOSUNNY   78  59  51 S9        29.99F
BLOCK ISLAND   SUNNY     73  57  56 SE7       30.01S
WESTERLY       SUNNY     76  60  57 S10       30.01S

 IN MA

CITY           SKY/WX    TMP DP  RH WIND       PRES   REMARKS
BOSTON         MOSUNNY   72  54  53 E14       30.02F
WORCESTER      SUNNY     78  54  43 E7        30.02F
WESTFIELD      MOSUNNY   82  60  47 S5        29.98F
PROVINCETOWN   SUNNY     73  61  64 MISG      30.03S
NANTUCKET      SUNNY     72  58  61 NE12      30.01F
$$

ANZ330-335-338-340-345-350-353-355-202000-
COASTAL MARINE OBSERVATIONS


STATION/POSITION TIME  SKY/WX   TEMP    WIND        PRES    VSBY  WAVE
                                AIR SEA DIR/SP/G                  HT/PER
                 (UTC)          (F)     (DEG/KT/KT) (MB)    (MI)  (FT/S)
NY HARB ENTRANCE NOT AVBL
4S FIRE IS       NOT AVBL
23SW MTP         1900            70 70              1015.7          2/ 7
HUDSON CANYON    1900            72 73   40/ 10/ 12 1015.2          3/ 6
EXECUTION ROCKS  1900            76 75   80/  6/ 10   N/A
WESTERN LI SOUND 1900            73      90/ 12/ 12   N/A           0
CENTRAL LI SOUND 1800            73 75   CALM  /  2   N/A           0
EASTERN LI SOUND 1800            71 71  190/  6/  8   N/A
ROBBINS REEF     1900            72     160/ 17/ 18   N/A
$$


>>>>>>>>>>>>>>>>>>>>>>>>>>>> KEY <<<<<<<<<<<<<<<<<<<<<<<<<<<
>                                                          <
>     SKY/WX - SKY CONDITION/PRESENT WEATHER               <
>     TMP    - TEMPERATURE IN FAHRENHEIT                   <
>     DP     - DEWPOINT IN FAHRENHEIT                      <
>     RH     - RELATIVE HUMIDITY IN PERCENT                <
>     WIND   - DIRECTION AND SPEED IN MPH                  <
>     PRES   - MEAN SEA LEVEL PRESSURE IN INCHES OF HG     <
>     WCI    - WIND CHILL INDEX                            <
>     VSB    - VISIBILITY IN MILES                         <
>     HX     - HEAT INDEX                                  <
>     TC     - TEMPERATURE IN CELSIUS                      <
>     VRB    - VARIABLE WIND DIRECTION                     <
>                                                          <
>>>>>>>>>>>>>>>>>>>>>>>>>>>> KEY <<<<<<<<<<<<<<<<<<<<<<<<<<<





USA.gov is the U.S. government's official web portal to all federal, state and local government web resources and services.